QTR571 UAAA-UACC

Flight info

Callsign QTR571
Flight time N/A
Altitude 34000
Route ETEDA1J ETEDA W333 BANOS BANOS1D
Aircraft B77L/H-SDE1E2E3FGHIJ2J3J4J5M1RWXY/LB1D1

Departure

Time 2026-05-08 18:22
Airport Almaty International Airport (UAAA)

Arrival

Time N/A
Airport Nursultan Nazarbayev International Airport (UACC)
Time Latitude Longitude Altitude Speed Heading
2026-05-08 18:05 43.35117 77.01749 2260 ft 0 kts
2026-05-08 18:11 43.35111 77.01749 2260 ft 2 kts
2026-05-08 18:12 43.35110 77.01749 2260 ft 2 kts
2026-05-08 18:12 43.35099 77.01748 2260 ft 2 kts
2026-05-08 18:12 43.35087 77.01747 2260 ft 2 kts
2026-05-08 18:12 43.35075 77.01746 2260 ft 2 kts 13°
2026-05-08 18:13 43.35065 77.01740 2260 ft 2 kts 28°
2026-05-08 18:13 43.35054 77.01731 2260 ft 2 kts 41°
2026-05-08 18:13 43.35046 77.01719 2260 ft 2 kts 54°
2026-05-08 18:13 43.35037 77.01695 2260 ft 2 kts 76°
2026-05-08 18:14 43.35035 77.01672 2260 ft 1 kts 93°
2026-05-08 18:14 43.35035 77.01670 2260 ft 0 kts 94°
2026-05-08 18:16 43.35035 77.01671 2260 ft 0 kts 94°
2026-05-08 18:17 43.35035 77.01684 2260 ft 4 kts 94°
2026-05-08 18:17 43.35033 77.01722 2260 ft 8 kts 92°
2026-05-08 18:17 43.35031 77.01827 2260 ft 14 kts 91°
2026-05-08 18:18 43.35027 77.01990 2261 ft 19 kts 92°
2026-05-08 18:18 43.35016 77.02143 2261 ft 13 kts 107°
2026-05-08 18:18 43.34966 77.02244 2261 ft 11 kts 141°
2026-05-08 18:18 43.34890 77.02250 2261 ft 11 kts 196°
2026-05-08 18:19 43.34819 77.02219 2261 ft 10 kts 199°
2026-05-08 18:19 43.34753 77.02187 2261 ft 10 kts 199°
2026-05-08 18:19 43.34685 77.02155 2261 ft 10 kts 199°
2026-05-08 18:19 43.34609 77.02123 2261 ft 11 kts 196°
2026-05-08 18:20 43.34537 77.02107 2261 ft 10 kts 170°
2026-05-08 18:20 43.34502 77.02170 2262 ft 8 kts 99°
2026-05-08 18:20 43.34497 77.02248 2262 ft 7 kts 95°
2026-05-08 18:20 43.34493 77.02332 2262 ft 11 kts 94°
2026-05-08 18:21 43.34498 77.02467 2262 ft 17 kts 74°
2026-05-08 18:21 43.34549 77.02609 2262 ft 0 kts 55°
2026-05-08 18:21 43.34607 77.02723 2262 ft 53 kts 56°
2026-05-08 18:22 43.35014 77.03548 2263 ft 153 kts 56°
2026-05-08 18:22 43.35734 77.05042 2691 ft 205 kts 57°
2026-05-08 18:22 43.36472 77.06542 4219 ft 201 kts 56°
2026-05-08 18:22 43.37257 77.08092 5530 ft 211 kts 55°
2026-05-08 18:23 43.38125 77.09634 6527 ft 212 kts 51°
2026-05-08 18:23 43.39144 77.11206 7141 ft 229 kts 38°
2026-05-08 18:23 43.40636 77.12051 7719 ft 247 kts
2026-05-08 18:23 43.42371 77.11633 8301 ft 264 kts 337°
2026-05-08 18:24 43.44100 77.10599 8922 ft 280 kts 335°
2026-05-08 18:24 43.45897 77.09478 9672 ft 295 kts 335°
2026-05-08 18:24 43.47776 77.08303 10663 ft 300 kts 335°
2026-05-08 18:24 43.49707 77.07094 11404 ft 315 kts 335°
2026-05-08 18:25 43.51731 77.05826 12234 ft 329 kts 335°
2026-05-08 18:25 43.53843 77.04501 12944 ft 343 kts 335°
2026-05-08 18:25 43.56039 77.03123 13729 ft 356 kts 335°
2026-05-08 18:25 43.58343 77.01676 14517 ft 372 kts 335°
2026-05-08 18:26 43.60715 77.00185 15202 ft 387 kts 334°
2026-05-08 18:26 43.63209 76.98616 16009 ft 398 kts 334°
2026-05-08 18:26 43.65727 76.97032 16945 ft 405 kts 334°
2026-05-08 18:26 43.68304 76.95408 17906 ft 413 kts 334°
2026-05-08 18:27 43.70916 76.93761 18872 ft 418 kts 334°
2026-05-08 18:27 43.72676 76.92651 19537 ft 421 kts 334°
2026-05-08 18:27 43.76225 76.90408 20805 ft 429 kts 334°
2026-05-08 18:27 43.78973 76.88670 21739 ft 434 kts 334°
2026-05-08 18:28 43.81721 76.86929 22620 ft 440 kts 334°
2026-05-08 18:28 43.84476 76.85184 23504 ft 444 kts 334°
2026-05-08 18:28 43.87317 76.83382 24409 ft 448 kts 334°
2026-05-08 18:28 43.90141 76.81588 25299 ft 451 kts 333°
2026-05-08 18:29 43.92979 76.79784 26170 ft 454 kts 333°
2026-05-08 18:29 43.95842 76.77962 26978 ft 459 kts 333°
2026-05-08 18:29 43.98758 76.76104 27739 ft 464 kts 333°
2026-05-08 18:29 44.01675 76.74243 28545 ft 468 kts 333°
2026-05-08 18:30 44.04651 76.72343 29358 ft 472 kts 333°
2026-05-08 18:30 44.07646 76.70430 30326 ft 472 kts 333°
2026-05-08 18:30 44.10617 76.68531 31502 ft 467 kts 332°
2026-05-08 18:30 44.13512 76.66680 32742 ft 458 kts 332°
2026-05-08 18:31 44.16383 76.64841 33696 ft 455 kts 331°
2026-05-08 18:31 44.19237 76.63008 34005 ft 457 kts 331°
2026-05-08 18:31 44.24947 76.59338 34019 ft 452 kts 331°
2026-05-08 18:32 44.30661 76.55656 34008 ft 453 kts 331°
2026-05-08 18:32 44.36374 76.52042 34015 ft 454 kts 333°
2026-05-08 18:33 44.42189 76.48679 34006 ft 454 kts 333°
2026-05-08 18:33 44.48046 76.45277 34003 ft 454 kts 333°
2026-05-08 18:34 44.53825 76.41901 33997 ft 453 kts 333°
2026-05-08 18:34 44.59666 76.38477 34000 ft 456 kts 333°
2026-05-08 18:35 44.65502 76.35046 33996 ft 454 kts 333°
2026-05-08 18:35 44.71310 76.31622 34010 ft 454 kts 332°
2026-05-08 18:36 44.77159 76.28165 34011 ft 454 kts 332°
2026-05-08 18:36 44.82930 76.24747 34008 ft 454 kts 332°
2026-05-08 18:37 44.88745 76.21294 33999 ft 453 kts 332°
2026-05-08 18:37 44.94551 76.17841 33996 ft 453 kts 332°
2026-05-08 18:38 45.00345 76.14384 33992 ft 453 kts 332°
2026-05-08 18:38 45.06130 76.10928 33986 ft 452 kts 331°
2026-05-08 18:39 45.11908 76.07467 33982 ft 452 kts 332°
2026-05-08 18:39 45.17670 76.04007 33983 ft 454 kts 332°
2026-05-08 18:40 45.23461 76.00523 33983 ft 453 kts 332°
2026-05-08 18:40 45.29280 75.97015 33979 ft 454 kts 332°
2026-05-08 18:41 45.35094 75.93501 33978 ft 456 kts 332°
2026-05-08 18:41 45.40905 75.89982 33975 ft 457 kts 332°
2026-05-08 18:42 45.46755 75.86431 33974 ft 456 kts 332°
2026-05-08 18:42 45.52609 75.82870 33972 ft 455 kts 332°
2026-05-08 18:43 45.58435 75.79318 33970 ft 456 kts 332°
2026-05-08 18:43 45.64280 75.75745 33976 ft 458 kts 332°
2026-05-08 18:44 45.70092 75.72185 33967 ft 458 kts 332°
2026-05-08 18:44 45.75935 75.68599 33973 ft 459 kts 332°
2026-05-08 18:45 45.80729 75.65652 33972 ft 459 kts 332°
2026-05-08 18:45 45.86301 75.62219 33975 ft 461 kts 332°
2026-05-08 18:46 45.92138 75.58616 33972 ft 461 kts 332°
2026-05-08 18:46 45.98054 75.54955 33975 ft 461 kts 332°
2026-05-08 18:47 46.03909 75.51324 33975 ft 462 kts 332°
2026-05-08 18:47 46.09814 75.47652 33968 ft 463 kts 332°
2026-05-08 18:48 46.15706 75.43980 33958 ft 464 kts 332°
2026-05-08 18:48 46.21616 75.40288 33965 ft 464 kts 332°
2026-05-08 18:49 46.27271 75.36766 33972 ft 466 kts 332°
2026-05-08 18:49 46.33400 75.32958 33983 ft 467 kts 332°
2026-05-08 18:50 46.39317 75.29270 33971 ft 466 kts 331°
2026-05-08 18:50 46.45259 75.25556 33975 ft 468 kts 332°
2026-05-08 18:51 46.51189 75.21841 33976 ft 468 kts 332°
2026-05-08 18:51 46.57176 75.18081 33982 ft 469 kts 331°
2026-05-08 18:52 46.63074 75.14368 33981 ft 469 kts 331°
2026-05-08 18:52 46.69054 75.10594 33985 ft 468 kts 331°
2026-05-08 18:53 46.75017 75.06821 33985 ft 471 kts 331°
2026-05-08 18:53 46.81017 75.03017 33984 ft 469 kts 331°
2026-05-08 18:54 46.86789 74.99348 33992 ft 470 kts 331°
2026-05-08 18:54 46.92870 74.95763 33985 ft 472 kts 334°
2026-05-08 18:55 47.02038 74.90778 33991 ft 475 kts 334°
2026-05-08 18:56 47.08200 74.87395 34003 ft 473 kts 334°
2026-05-08 18:56 47.14350 74.83998 33991 ft 475 kts 333°
2026-05-08 18:57 47.20506 74.80585 33998 ft 475 kts 334°
2026-05-08 18:57 47.26702 74.77137 34006 ft 478 kts 333°
2026-05-08 18:58 47.32901 74.73679 34007 ft 478 kts 333°
2026-05-08 18:58 47.39085 74.70219 34016 ft 479 kts 333°
2026-05-08 18:59 47.45316 74.66724 34024 ft 480 kts 333°
2026-05-08 18:59 47.51533 74.63228 34022 ft 480 kts 333°
2026-05-08 19:00 47.56694 74.60325 34025 ft 482 kts 334°
2026-05-08 19:00 47.64029 74.56216 34022 ft 482 kts 334°
2026-05-08 19:01 47.70246 74.52724 34026 ft 484 kts 334°
2026-05-08 19:01 47.76546 74.49174 34023 ft 486 kts 334°
2026-05-08 19:02 47.82831 74.45625 34020 ft 484 kts 333°
2026-05-08 19:02 47.89147 74.42046 34018 ft 488 kts 333°
2026-05-08 19:03 47.95464 74.38461 34021 ft 485 kts 334°
2026-05-08 19:03 48.01721 74.34898 34025 ft 488 kts 333°
2026-05-08 19:04 48.08031 74.31295 34035 ft 488 kts 333°
2026-05-08 19:04 48.14335 74.27689 34025 ft 487 kts 333°
2026-05-08 19:05 48.20654 74.24114 34032 ft 488 kts 333°
2026-05-08 19:05 48.26984 74.20528 34040 ft 487 kts 333°
2026-05-08 19:06 48.33356 74.16907 34037 ft 489 kts 333°
2026-05-08 19:06 48.39687 74.13298 34038 ft 489 kts 333°
2026-05-08 19:07 48.41399 74.12321 34036 ft 488 kts 334°
2026-05-08 19:07 48.42577 74.11648 34037 ft 489 kts 333°
2026-05-08 19:08 48.45892 74.09752 34035 ft 489 kts 333°
2026-05-08 19:08 48.49968 74.07416 34038 ft 489 kts 333°
2026-05-08 19:09 48.56323 74.03769 34033 ft 488 kts 333°
2026-05-08 19:09 48.62547 74.00185 34032 ft 488 kts 334°
2026-05-08 19:10 48.68883 73.96528 34032 ft 489 kts 333°
2026-05-08 19:10 48.75205 73.92870 34029 ft 488 kts 333°
2026-05-08 19:11 48.81550 73.89187 34029 ft 489 kts 333°
2026-05-08 19:11 48.87818 73.85540 34031 ft 487 kts 333°
2026-05-08 19:12 48.94071 73.81891 34032 ft 488 kts 334°
2026-05-08 19:12 49.00393 73.78190 34032 ft 488 kts 333°
2026-05-08 19:13 49.06717 73.74464 34028 ft 486 kts 333°
2026-05-08 19:13 49.12544 73.71021 34005 ft 485 kts 334°
2026-05-08 19:14 49.18019 73.67779 34006 ft 483 kts 333°
2026-05-08 19:14 49.24049 73.64197 34004 ft 485 kts 334°
2026-05-08 19:15 49.31112 73.59992 33992 ft 483 kts 333°
2026-05-08 19:15 49.37342 73.56273 33980 ft 481 kts 334°
2026-05-08 19:16 49.43486 73.52593 33977 ft 482 kts 334°
2026-05-08 19:16 49.49464 73.49004 33970 ft 483 kts 334°
2026-05-08 19:17 49.55320 73.45482 33819 ft 476 kts 334°
2026-05-08 19:17 49.58360 73.43649 33124 ft 476 kts 334°
2026-05-08 19:17 49.61433 73.41792 32297 ft 478 kts 334°
2026-05-08 19:17 49.64513 73.39928 31477 ft 479 kts 334°
2026-05-08 19:18 49.67504 73.37781 30677 ft 473 kts 325°
2026-05-08 19:18 49.69875 73.35352 30232 ft 462 kts 317°
2026-05-08 19:18 49.72445 73.31921 29805 ft 450 kts 312°
2026-05-08 19:18 49.74721 73.28692 29361 ft 444 kts 311°
2026-05-08 19:19 49.76970 73.25479 28888 ft 438 kts 311°
2026-05-08 19:19 49.79211 73.22266 28396 ft 434 kts 311°
2026-05-08 19:19 49.80812 73.19965 28051 ft 430 kts 311°
2026-05-08 19:19 49.81782 73.18568 27842 ft 429 kts 311°